FDX5 KIAD-KEWR

Flight info

Callsign FDX5
Flight time 0h 36m
Altitude 27000
Route JCOBY4 SWANN PHLBO4
Aircraft MD11/H-SDE1E2E3FGHIJ2J3J4J5M1RWXY/LB1D1

Departure

Time 2026-05-07 21:22
Airport Washington Dulles International Airport (KIAD)

Arrival

Time 2026-05-07 21:58
Airport Newark Liberty International Airport (KEWR)
Time Latitude Longitude Altitude Speed Heading
2026-05-07 21:01 38.94001 -77.45173 309 ft 0 kts 181°
2026-05-07 21:10 38.93998 -77.45173 309 ft 0 kts 181°
2026-05-07 21:16 38.94000 -77.45173 309 ft 2 kts 181°
2026-05-07 21:17 38.94030 -77.45170 308 ft 7 kts 190°
2026-05-07 21:17 38.94089 -77.45149 307 ft 10 kts 206°
2026-05-07 21:17 38.94126 -77.45108 309 ft 0 kts 239°
2026-05-07 21:18 38.94125 -77.45109 309 ft 1 kts 239°
2026-05-07 21:18 38.94116 -77.45153 310 ft 10 kts 262°
2026-05-07 21:18 38.94113 -77.45279 311 ft 18 kts 271°
2026-05-07 21:18 38.94116 -77.45463 312 ft 23 kts 271°
2026-05-07 21:19 38.94089 -77.45592 312 ft 10 kts 223°
2026-05-07 21:19 38.94015 -77.45611 313 ft 14 kts 185°
2026-05-07 21:19 38.93898 -77.45617 311 ft 21 kts 180°
2026-05-07 21:19 38.93745 -77.45614 304 ft 22 kts 173°
2026-05-07 21:20 38.93630 -77.45509 301 ft 14 kts 143°
2026-05-07 21:20 38.93534 -77.45514 297 ft 17 kts 201°
2026-05-07 21:20 38.93427 -77.45575 288 ft 8 kts 204°
2026-05-07 21:20 38.93385 -77.45617 289 ft 5 kts 241°
2026-05-07 21:21 38.93385 -77.45659 295 ft 0 kts 280°
2026-05-07 21:21 38.93420 -77.45795 294 ft 48 kts 290°
2026-05-07 21:21 38.93628 -77.46494 306 ft 116 kts 290°
2026-05-07 21:22 38.93982 -77.47698 310 ft 168 kts 292°
2026-05-07 21:22 38.94263 -77.48664 542 ft 176 kts 287°
2026-05-07 21:22 38.94740 -77.50142 1187 ft 181 kts 304°
2026-05-07 21:22 38.95755 -77.51835 2283 ft 204 kts 309°
2026-05-07 21:23 38.96677 -77.53295 3317 ft 215 kts 309°
2026-05-07 21:23 38.97672 -77.54865 3924 ft 248 kts 309°
2026-05-07 21:23 38.98769 -77.56588 5014 ft 252 kts 309°
2026-05-07 21:23 38.99511 -77.57754 5724 ft 254 kts 309°
2026-05-07 21:24 39.00636 -77.59515 6805 ft 255 kts 308°
2026-05-07 21:24 39.01763 -77.61279 7911 ft 256 kts 307°
2026-05-07 21:24 39.02897 -77.63051 8953 ft 257 kts 306°
2026-05-07 21:24 39.04148 -77.64724 9900 ft 264 kts 320°
2026-05-07 21:25 39.05896 -77.65724 10387 ft 297 kts 341°
2026-05-07 21:25 39.08107 -77.65802 10543 ft 341 kts
2026-05-07 21:25 39.10450 -77.64728 10888 ft 375 kts 26°
2026-05-07 21:25 39.12507 -77.62544 11610 ft 394 kts 45°
2026-05-07 21:26 39.14021 -77.59516 12290 ft 410 kts 64°
2026-05-07 21:26 39.14876 -77.55962 12955 ft 421 kts 78°
2026-05-07 21:26 39.15387 -77.52269 13661 ft 429 kts 82°
2026-05-07 21:26 39.15809 -77.48412 14295 ft 437 kts 83°
2026-05-07 21:27 39.16201 -77.44513 15007 ft 441 kts 83°
2026-05-07 21:27 39.16589 -77.40556 15664 ft 447 kts 83°
2026-05-07 21:27 39.16993 -77.36555 16299 ft 454 kts 82°
2026-05-07 21:27 39.17412 -77.32488 16861 ft 459 kts 87°
2026-05-07 21:28 39.17279 -77.28393 17466 ft 458 kts 104°
2026-05-07 21:28 39.16415 -77.24448 18078 ft 457 kts 115°
2026-05-07 21:28 39.15195 -77.20658 18677 ft 456 kts 120°
2026-05-07 21:28 39.13937 -77.16896 19209 ft 462 kts 115°
2026-05-07 21:29 39.12960 -77.12910 19738 ft 470 kts 109°
2026-05-07 21:29 39.12193 -77.08784 20241 ft 476 kts 105°
2026-05-07 21:29 39.11530 -77.04581 20762 ft 481 kts 104°
2026-05-07 21:29 39.10925 -77.00317 21257 ft 487 kts 101°
2026-05-07 21:30 39.10664 -76.95999 21787 ft 493 kts 93°
2026-05-07 21:30 39.10691 -76.91555 22290 ft 499 kts 89°
2026-05-07 21:30 39.10850 -76.87090 22825 ft 504 kts 88°
2026-05-07 21:30 39.11046 -76.82555 23230 ft 511 kts 88°
2026-05-07 21:31 39.11228 -76.77970 23705 ft 516 kts 88°
2026-05-07 21:31 39.11386 -76.73329 24138 ft 521 kts 89°
2026-05-07 21:31 39.11521 -76.68646 24551 ft 526 kts 89°
2026-05-07 21:31 39.11640 -76.63912 24994 ft 531 kts 89°
2026-05-07 21:32 39.11751 -76.59149 25444 ft 536 kts 90°
2026-05-07 21:32 39.11868 -76.54319 25812 ft 540 kts 88°
2026-05-07 21:32 39.12153 -76.49473 26163 ft 545 kts 85°
2026-05-07 21:32 39.12617 -76.44605 26539 ft 551 kts 83°
2026-05-07 21:33 39.13180 -76.39688 26825 ft 558 kts 82°
2026-05-07 21:33 39.13781 -76.34737 26885 ft 564 kts 81°
2026-05-07 21:33 39.14419 -76.29727 26897 ft 567 kts 79°
2026-05-07 21:33 39.15428 -76.24820 26897 ft 566 kts 68°
2026-05-07 21:34 39.17112 -76.20265 26899 ft 561 kts 54°
2026-05-07 21:34 39.19408 -76.16271 26898 ft 551 kts 41°
2026-05-07 21:34 39.22191 -76.12937 26885 ft 541 kts 31°
2026-05-07 21:34 39.25193 -76.10009 26893 ft 542 kts 28°
2026-05-07 21:35 39.28237 -76.07098 26890 ft 545 kts 30°
2026-05-07 21:35 39.31220 -76.04068 26888 ft 547 kts 32°
2026-05-07 21:35 39.34138 -76.00889 26886 ft 549 kts 34°
2026-05-07 21:35 39.36996 -75.97607 26882 ft 551 kts 35°
2026-05-07 21:36 39.39826 -75.94259 26941 ft 551 kts 36°
2026-05-07 21:36 39.42624 -75.90906 26891 ft 547 kts 36°
2026-05-07 21:36 39.45405 -75.87566 26877 ft 546 kts 36°
2026-05-07 21:36 39.48199 -75.84222 26871 ft 545 kts 36°
2026-05-07 21:37 39.50989 -75.80894 26869 ft 545 kts 36°
2026-05-07 21:37 39.53775 -75.77577 26820 ft 545 kts 36°
2026-05-07 21:37 39.56583 -75.74237 26849 ft 550 kts 36°
2026-05-07 21:37 39.59411 -75.70872 26900 ft 551 kts 36°
2026-05-07 21:38 39.62190 -75.67556 26871 ft 548 kts 36°
2026-05-07 21:38 39.64983 -75.64215 26792 ft 540 kts 36°
2026-05-07 21:38 39.67730 -75.60919 25722 ft 538 kts 37°
2026-05-07 21:38 39.70471 -75.57615 24617 ft 536 kts 37°
2026-05-07 21:39 39.73201 -75.54320 23518 ft 534 kts 37°
2026-05-07 21:39 39.75908 -75.51049 22477 ft 527 kts 37°
2026-05-07 21:39 39.78570 -75.47833 21493 ft 518 kts 38°
2026-05-07 21:39 39.81188 -75.44669 20535 ft 509 kts 38°
2026-05-07 21:40 39.83767 -75.41553 19615 ft 500 kts 38°
2026-05-07 21:40 39.86298 -75.38494 18735 ft 493 kts 38°
2026-05-07 21:40 39.88787 -75.35483 17922 ft 484 kts 38°
2026-05-07 21:40 39.91200 -75.32560 17017 ft 476 kts 38°
2026-05-07 21:41 39.93610 -75.29640 16135 ft 469 kts 38°
2026-05-07 21:41 39.95974 -75.26770 15277 ft 462 kts 39°
2026-05-07 21:41 39.98318 -75.23914 14504 ft 456 kts 39°
2026-05-07 21:41 40.00621 -75.21104 13729 ft 451 kts 39°
2026-05-07 21:42 40.02893 -75.18332 12889 ft 445 kts 39°
2026-05-07 21:42 40.05133 -75.15597 12234 ft 433 kts 39°
2026-05-07 21:42 40.07317 -75.12928 11847 ft 427 kts 38°
2026-05-07 21:42 40.09467 -75.10301 11475 ft 419 kts 38°
2026-05-07 21:43 40.11556 -75.07743 11137 ft 403 kts 38°
2026-05-07 21:43 40.13540 -75.05297 11024 ft 382 kts 38°
2026-05-07 21:43 40.15439 -75.02951 10779 ft 369 kts 38°
2026-05-07 21:43 40.17271 -75.00687 10579 ft 355 kts 37°
2026-05-07 21:44 40.19031 -74.98512 10356 ft 343 kts 37°
2026-05-07 21:44 40.20753 -74.96389 9957 ft 338 kts 37°
2026-05-07 21:44 40.22466 -74.94283 9417 ft 337 kts 37°
2026-05-07 21:44 40.24138 -74.92227 9012 ft 332 kts 38°
2026-05-07 21:45 40.25787 -74.90145 8606 ft 327 kts 40°
2026-05-07 21:45 40.27351 -74.88019 8235 ft 321 kts 42°
2026-05-07 21:45 40.28845 -74.85922 8046 ft 309 kts 42°
2026-05-07 21:45 40.30271 -74.83907 8013 ft 295 kts 42°
2026-05-07 21:46 40.31657 -74.81946 8006 ft 292 kts 42°
2026-05-07 21:46 40.33039 -74.79995 8012 ft 291 kts 42°
2026-05-07 21:46 40.34417 -74.78053 8018 ft 290 kts 43°
2026-05-07 21:46 40.35782 -74.76126 8023 ft 285 kts 43°
2026-05-07 21:47 40.37093 -74.74266 8011 ft 263 kts 43°
2026-05-07 21:47 40.38238 -74.72627 7975 ft 232 kts 42°
2026-05-07 21:47 40.39300 -74.71115 7785 ft 221 kts 42°
2026-05-07 21:47 40.40345 -74.69638 7519 ft 216 kts 42°
2026-05-07 21:48 40.41354 -74.68238 7277 ft 212 kts 39°
2026-05-07 21:48 40.42259 -74.66718 6990 ft 214 kts 64°
2026-05-07 21:48 40.42684 -74.64852 6780 ft 214 kts 73°
2026-05-07 21:48 40.43036 -74.62970 6539 ft 211 kts 73°
2026-05-07 21:49 40.43405 -74.61123 6297 ft 208 kts 72°
2026-05-07 21:49 40.43794 -74.59295 6032 ft 206 kts 71°
2026-05-07 21:49 40.44196 -74.57495 5770 ft 205 kts 71°
2026-05-07 21:49 40.44609 -74.55706 5529 ft 204 kts 70°
2026-05-07 21:50 40.45028 -74.53933 5275 ft 203 kts 70°
2026-05-07 21:50 40.45454 -74.52162 5023 ft 203 kts 70°
2026-05-07 21:50 40.45882 -74.50403 4779 ft 201 kts 70°
2026-05-07 21:50 40.46310 -74.48660 4518 ft 201 kts 69°
2026-05-07 21:51 40.46745 -74.46904 4276 ft 201 kts 69°
2026-05-07 21:51 40.47177 -74.45165 4021 ft 200 kts 69°
2026-05-07 21:51 40.47609 -74.43432 3766 ft 200 kts 69°
2026-05-07 21:51 40.48042 -74.41700 3515 ft 199 kts 69°
2026-05-07 21:52 40.48475 -74.39976 3277 ft 198 kts 69°
2026-05-07 21:52 40.48904 -74.38262 3023 ft 197 kts 70°
2026-05-07 21:52 40.49327 -74.36575 2927 ft 197 kts 69°
2026-05-07 21:52 40.49757 -74.34865 2869 ft 197 kts 69°
2026-05-07 21:53 40.50186 -74.33158 2810 ft 195 kts 69°
2026-05-07 21:53 40.50612 -74.31459 2813 ft 195 kts 69°
2026-05-07 21:53 40.51052 -74.29770 2808 ft 195 kts 65°
2026-05-07 21:53 40.51725 -74.28241 2718 ft 193 kts 46°
2026-05-07 21:54 40.52772 -74.27209 2337 ft 185 kts 27°
2026-05-07 21:54 40.53896 -74.26360 2075 ft 188 kts 26°
2026-05-07 21:54 40.55031 -74.25529 1829 ft 184 kts 25°
2026-05-07 21:54 40.56113 -74.24816 1679 ft 167 kts 21°
2026-05-07 21:55 40.57142 -74.24170 1706 ft 162 kts 23°
2026-05-07 21:55 40.58153 -74.23531 1698 ft 161 kts 22°
2026-05-07 21:55 40.59162 -74.22893 1724 ft 162 kts 22°
2026-05-07 21:55 40.60173 -74.22252 1701 ft 161 kts 21°
2026-05-07 21:56 40.61185 -74.21611 1532 ft 162 kts 22°
2026-05-07 21:56 40.62194 -74.20969 1294 ft 161 kts 23°
2026-05-07 21:56 40.63208 -74.20324 1074 ft 162 kts 22°
2026-05-07 21:56 40.64219 -74.19682 870 ft 161 kts 25°
2026-05-07 21:57 40.65224 -74.19039 639 ft 161 kts 22°
2026-05-07 21:57 40.66237 -74.18398 390 ft 160 kts 22°
2026-05-07 21:57 40.67249 -74.17743 235 ft 163 kts 20°
2026-05-07 21:57 40.68278 -74.17093 50 ft 163 kts 20°
2026-05-07 21:58 40.69213 -74.16515 32 ft 130 kts 26°
2026-05-07 21:58 40.69856 -74.16092 27 ft 68 kts 25°
2026-05-07 21:58 40.70113 -74.15935 30 ft 16 kts 25°
2026-05-07 21:58 40.70219 -74.15891 29 ft 14 kts 352°
2026-05-07 21:59 40.70259 -74.15941 28 ft 7 kts 287°
2026-05-07 21:59 40.70258 -74.16018 27 ft 10 kts 265°
2026-05-07 21:59 40.70261 -74.16129 27 ft 14 kts 275°
2026-05-07 21:59 40.70258 -74.16232 26 ft 11 kts 278°
2026-05-07 22:00 40.70273 -74.16349 27 ft 15 kts 275°
2026-05-07 22:00 40.70249 -74.16442 29 ft 6 kts 219°
2026-05-07 22:00 40.70213 -74.16461 27 ft 7 kts 193°
2026-05-07 22:00 40.70138 -74.16476 26 ft 16 kts 188°
2026-05-07 22:01 40.70009 -74.16539 24 ft 24 kts 204°
2026-05-07 22:01 40.69840 -74.16640 25 ft 30 kts 205°
2026-05-07 22:01 40.69650 -74.16762 27 ft 29 kts 206°
2026-05-07 22:01 40.69476 -74.16874 29 ft 23 kts 206°
2026-05-07 22:02 40.69323 -74.16971 28 ft 26 kts 205°
2026-05-07 22:02 40.69156 -74.17076 25 ft 28 kts 205°
2026-05-07 22:02 40.68965 -74.17198 27 ft 32 kts 206°
2026-05-07 22:02 40.68780 -74.17317 31 ft 24 kts 206°
2026-05-07 22:03 40.68631 -74.17414 34 ft 23 kts 205°
2026-05-07 22:03 40.68514 -74.17496 32 ft 12 kts 216°
2026-05-07 22:03 40.68440 -74.17580 32 ft 16 kts 225°
2026-05-07 22:03 40.68355 -74.17710 28 ft 22 kts 233°
2026-05-07 22:04 40.68289 -74.17903 30 ft 25 kts 248°